Simultaneous Nadir Overpasses (SNOs) Predictions

Prediction of SNOs between AQUA and GOES-15 Satellite Orbit:

Table of predicted SNOs for the next 14.0 days since TLE Epoch: 11/27/2021
Index Date Time (AQUA) AQUA Lat,Lon GOES-15 Lat,Lon Distance(km) Time Diff (sec)
1 11/27/2021 10:19:36 0.56,-130.85 0.02,-128.26 294.52 80
2 11/29/2021 10:07:24 -0.04,-127.88 0.02,-128.22 37.69 80
3 12/01/2021 09:55:12 -0.64,-124.92 0.03,-128.17 369.49 80
4 12/01/2021 22:16:37 -0.42,-130.12 -0.01,-128.16 221.98 80
5 12/03/2021 22:04:25 0.19,-127.15 -0.02,-128.11 108.85 80
6 12/04/2021 10:25:39 0.92,-132.30 -0.00,-128.09 479.81 80
7 12/05/2021 21:52:13 0.81,-124.19 -0.02,-128.04 438.93 80
8 12/06/2021 10:13:27 0.30,-129.34 0.00,-128.02 149.95 80
9 12/08/2021 10:01:15 -0.33,-126.38 0.00,-127.95 179.53 80
10 12/08/2021 22:22:39 -0.78,-131.56 0.02,-127.94 412.80 80
11 12/10/2021 22:10:27 -0.14,-128.60 0.01,-127.87 83.11 80
